Location: Unspecified
(0.0000°N, 0.0000°E)
Time: 15:38:59
(UTC+00:00)

Amsat-Oscar-6 - Pass Details

Date: 19 June 2019
Orbit: 1448 x 1454 km, 101.8° (Epoch: 21 August)

Event Time Altitude Azimuth Distance (km) Brightness Sun altitude
Rises 04:30:22 0° 349° (N) 4,541 ? -20.8°
Reaches altitude 10° 04:33:50 10° 336° (NNW) 3,566 ? -20.0°
Maximum altitude 04:40:00 24° 287° (WNW) 2,668 ? -18.6°
Enters shadow 04:41:53 22° 268° (W) 2,765 ? -18.2°
